EWG82N EDDG-LEPA

Flight info

Callsign EWG82N
Flight time 2h 8m
Altitude 24000
Route DOMEG1E DOMEG N853 QATJA Y841 NVO/N0453F360 Y841 KENUM DCT ARCKY DCT GESLO/N0450F350 DCT LIMGO DCT SUTAL DCT GTQ DCT POGOL DCT LASAT DCT MOROK/N0452F370 DCT GILIR DCT GEVEA DCT INCUS DCT BALSI DCT RETNO DCT TUPOX DCT MTG DCT DIVKO DCT VATIR DCT PIVUS DCT BODEQ DCT VERSO L129 LUNIK
Aircraft A320/M-SDE2E3FGIJ1RWXYZ/HB1

Departure

Time 2026-05-08 15:11
Airport Münster Osnabrück Airport (EDDG)

Arrival

Time 2026-05-08 17:20
Airport Palma de Mallorca Airport (LEPA)
Time Latitude Longitude Altitude Speed Heading
2026-05-08 14:00 52.13132 7.69210 168 ft 0 kts 197°
2026-05-08 15:05 52.13131 7.69199 167 ft 2 kts 262°
2026-05-08 15:06 52.13161 7.69173 167 ft 6 kts 334°
2026-05-08 15:06 52.13198 7.69196 167 ft 7 kts 56°
2026-05-08 15:06 52.13216 7.69274 167 ft 9 kts 71°
2026-05-08 15:06 52.13274 7.69312 167 ft 13 kts 340°
2026-05-08 15:07 52.13372 7.69256 167 ft 15 kts 341°
2026-05-08 15:07 52.13428 7.69205 167 ft 7 kts 303°
2026-05-08 15:07 52.13428 7.69133 167 ft 9 kts 249°
2026-05-08 15:07 52.13400 7.69004 167 ft 15 kts 251°
2026-05-08 15:08 52.13360 7.68816 167 ft 20 kts 251°
2026-05-08 15:08 52.13329 7.68667 167 ft 21 kts 251°
2026-05-08 15:08 52.13262 7.68357 167 ft 22 kts 251°
2026-05-08 15:08 52.13211 7.68112 167 ft 23 kts 251°
2026-05-08 15:09 52.13157 7.67855 167 ft 25 kts 251°
2026-05-08 15:09 52.13099 7.67595 167 ft 23 kts 250°
2026-05-08 15:09 52.13063 7.67415 167 ft 11 kts 251°
2026-05-08 15:09 52.13039 7.67303 167 ft 10 kts 251°
2026-05-08 15:10 52.13029 7.67193 167 ft 11 kts 275°
2026-05-08 15:10 52.13070 7.67081 167 ft 13 kts 319°
2026-05-08 15:10 52.13156 7.67034 167 ft 9 kts
2026-05-08 15:10 52.13171 7.67069 166 ft 0 kts 72°
2026-05-08 15:11 52.13189 7.67161 165 ft 39 kts 72°
2026-05-08 15:11 52.13359 7.67987 168 ft 111 kts 71°
2026-05-08 15:11 52.13667 7.69482 241 ft 159 kts 72°
2026-05-08 15:11 52.14012 7.71171 1070 ft 155 kts 73°
2026-05-08 15:12 52.14353 7.72850 1946 ft 153 kts 72°
2026-05-08 15:12 52.14725 7.74699 2441 ft 170 kts 72°
2026-05-08 15:12 52.15129 7.76665 2837 ft 186 kts 72°
2026-05-08 15:12 52.15564 7.78745 3193 ft 202 kts 72°
2026-05-08 15:13 52.15821 7.81097 3454 ft 226 kts 96°
2026-05-08 15:13 52.15138 7.83472 3993 ft 241 kts 134°
2026-05-08 15:13 52.13606 7.84807 4501 ft 260 kts 166°
2026-05-08 15:13 52.11815 7.85223 5438 ft 261 kts 176°
2026-05-08 15:14 52.09971 7.85180 6364 ft 263 kts 185°
2026-05-08 15:14 52.08135 7.84660 7146 ft 268 kts 195°
2026-05-08 15:14 52.06963 7.83980 7688 ft 269 kts 201°
2026-05-08 15:14 52.05149 7.82743 8531 ft 274 kts 202°
2026-05-08 15:15 52.03334 7.81484 9302 ft 279 kts 202°
2026-05-08 15:15 52.01518 7.80209 10071 ft 284 kts 203°
2026-05-08 15:15 51.99662 7.78897 10785 ft 288 kts 203°
2026-05-08 15:15 51.97807 7.77585 11365 ft 299 kts 204°
2026-05-08 15:16 51.95801 7.76163 11567 ft 322 kts 204°
2026-05-08 15:16 51.93654 7.74646 11821 ft 341 kts 204°
2026-05-08 15:16 51.91445 7.73089 12388 ft 348 kts 204°
2026-05-08 15:16 51.89210 7.71515 13019 ft 353 kts 205°
2026-05-08 15:17 51.86920 7.69904 13724 ft 356 kts 204°
2026-05-08 15:17 51.84665 7.68320 14340 ft 359 kts 205°
2026-05-08 15:17 51.82334 7.66684 14941 ft 363 kts 205°
2026-05-08 15:17 51.80011 7.65053 15540 ft 366 kts 205°
2026-05-08 15:18 51.77647 7.63395 16133 ft 369 kts 205°
2026-05-08 15:18 51.75267 7.61728 16720 ft 372 kts 205°
2026-05-08 15:18 51.72908 7.59844 17209 ft 376 kts 213°
2026-05-08 15:18 51.70574 7.57526 17769 ft 380 kts 213°
2026-05-08 15:19 51.68307 7.55253 18313 ft 383 kts 213°
2026-05-08 15:19 51.66030 7.52959 18806 ft 386 kts 213°
2026-05-08 15:19 51.63702 7.50614 19290 ft 389 kts 213°
2026-05-08 15:19 51.61367 7.48265 19807 ft 391 kts 213°
2026-05-08 15:20 51.59057 7.45949 20298 ft 393 kts 213°
2026-05-08 15:20 51.56702 7.43593 20772 ft 395 kts 213°
2026-05-08 15:20 51.54361 7.41256 21245 ft 397 kts 213°
2026-05-08 15:20 51.51972 7.38876 21720 ft 400 kts 213°
2026-05-08 15:21 51.50371 7.37282 22034 ft 401 kts 213°
2026-05-08 15:21 51.48000 7.34919 22487 ft 403 kts 213°
2026-05-08 15:21 51.45607 7.32538 22944 ft 405 kts 213°
2026-05-08 15:21 51.43205 7.30157 23386 ft 407 kts 213°
2026-05-08 15:22 51.40765 7.27734 23807 ft 410 kts 213°
2026-05-08 15:22 51.38294 7.25289 24162 ft 412 kts 212°
2026-05-08 15:22 51.35847 7.22875 24511 ft 414 kts 212°
2026-05-08 15:22 51.33349 7.20409 24864 ft 415 kts 212°
2026-05-08 15:23 51.30888 7.17978 25217 ft 417 kts 212°
2026-05-08 15:23 51.28385 7.15514 25546 ft 419 kts 212°
2026-05-08 15:23 51.25895 7.13067 25874 ft 422 kts 212°
2026-05-08 15:23 51.23361 7.10577 26200 ft 424 kts 212°
2026-05-08 15:24 51.20775 7.08035 26532 ft 426 kts 212°
2026-05-08 15:24 51.18233 7.05545 26851 ft 428 kts 212°
2026-05-08 15:24 51.15649 7.03020 27185 ft 430 kts 212°
2026-05-08 15:24 51.13059 7.00492 27497 ft 432 kts 212°
2026-05-08 15:25 51.10372 6.97872 27812 ft 433 kts 212°
2026-05-08 15:25 51.07654 6.95223 28131 ft 435 kts 212°
2026-05-08 15:25 51.05199 6.92827 28406 ft 437 kts 212°
2026-05-08 15:25 51.02563 6.90255 28691 ft 438 kts 212°
2026-05-08 15:26 50.99937 6.87701 28975 ft 440 kts 212°
2026-05-08 15:26 50.97317 6.85164 29240 ft 442 kts 212°
2026-05-08 15:26 50.94684 6.82619 29524 ft 443 kts 212°
2026-05-08 15:26 50.92058 6.80087 29911 ft 442 kts 212°
2026-05-08 15:27 50.89434 6.77559 30288 ft 441 kts 212°
2026-05-08 15:27 50.86818 6.75040 30611 ft 440 kts 212°
2026-05-08 15:27 50.84171 6.72493 30929 ft 439 kts 212°
2026-05-08 15:27 50.81579 6.69997 31237 ft 439 kts 212°
2026-05-08 15:28 50.78954 6.67473 31558 ft 438 kts 212°
2026-05-08 15:28 50.76348 6.64973 31862 ft 437 kts 212°
2026-05-08 15:28 50.73752 6.62487 32169 ft 437 kts 212°
2026-05-08 15:28 50.71150 6.60000 32479 ft 436 kts 212°
2026-05-08 15:29 50.68552 6.57520 32773 ft 436 kts 212°
2026-05-08 15:29 50.65907 6.55067 33062 ft 436 kts 207°
2026-05-08 15:29 50.63041 6.53500 33343 ft 439 kts 192°
2026-05-08 15:29 50.59982 6.53215 33605 ft 443 kts 179°
2026-05-08 15:30 50.56904 6.53545 33858 ft 444 kts 178°
2026-05-08 15:30 50.53828 6.53904 34133 ft 444 kts 178°
2026-05-08 15:30 50.50749 6.54279 34366 ft 444 kts 178°
2026-05-08 15:30 50.47669 6.54662 34591 ft 444 kts 178°
2026-05-08 15:31 50.44587 6.55043 34799 ft 445 kts 178°
2026-05-08 15:31 50.41492 6.55413 34994 ft 446 kts 178°
2026-05-08 15:31 50.38402 6.55773 35197 ft 446 kts 178°
2026-05-08 15:31 50.35304 6.56131 35412 ft 446 kts 178°
2026-05-08 15:32 50.32203 6.56486 35600 ft 446 kts 178°
2026-05-08 15:32 50.29107 6.56840 35794 ft 447 kts 178°
2026-05-08 15:32 50.27010 6.57081 35917 ft 447 kts 178°
2026-05-08 15:32 50.23887 6.57447 36065 ft 448 kts 178°
2026-05-08 15:33 50.17710 6.58169 36701 ft 437 kts 178°
2026-05-08 15:33 50.14687 6.58521 36990 ft 435 kts 178°
2026-05-08 15:33 50.11654 6.58874 37069 ft 438 kts 179°
2026-05-08 15:34 50.05483 6.59583 37073 ft 446 kts 178°
2026-05-08 15:34 49.99252 6.60297 37061 ft 450 kts 178°
2026-05-08 15:35 49.92998 6.61008 37075 ft 451 kts 179°
2026-05-08 15:35 49.86735 6.61722 37084 ft 451 kts 178°
2026-05-08 15:36 49.80468 6.62442 37062 ft 452 kts 178°
2026-05-08 15:36 49.74170 6.63157 37044 ft 455 kts 178°
2026-05-08 15:37 49.67754 6.63881 37047 ft 458 kts 178°
2026-05-08 15:37 49.61418 6.64599 37054 ft 460 kts 178°
2026-05-08 15:38 49.55036 6.65335 37039 ft 460 kts 178°
2026-05-08 15:38 49.48645 6.66060 37047 ft 460 kts 179°
2026-05-08 15:39 49.42250 6.66770 37070 ft 461 kts 178°
2026-05-08 15:39 49.35810 6.67483 37059 ft 461 kts 178°
2026-05-08 15:40 49.29415 6.68199 37041 ft 461 kts 179°
2026-05-08 15:40 49.23018 6.68916 37050 ft 461 kts 178°
2026-05-08 15:41 49.16626 6.69634 37053 ft 461 kts 178°
2026-05-08 15:41 49.10232 6.70352 37038 ft 461 kts 179°
2026-05-08 15:42 49.03835 6.71054 37068 ft 460 kts 179°
2026-05-08 15:42 48.97470 6.71574 37079 ft 455 kts 184°
2026-05-08 15:43 48.91159 6.71319 37078 ft 453 kts 184°
2026-05-08 15:43 48.84870 6.71074 37066 ft 451 kts 184°
2026-05-08 15:44 48.78558 6.70835 37071 ft 451 kts 184°
2026-05-08 15:44 48.72291 6.70594 37071 ft 450 kts 185°
2026-05-08 15:45 48.66032 6.70348 37068 ft 450 kts 185°
2026-05-08 15:45 48.59778 6.70100 37064 ft 449 kts 185°
2026-05-08 15:46 48.53523 6.69860 37061 ft 449 kts 184°
2026-05-08 15:46 48.47274 6.69622 37060 ft 449 kts 185°
2026-05-08 15:47 48.41027 6.69381 37050 ft 449 kts 185°
2026-05-08 15:47 48.34776 6.69139 37050 ft 449 kts 185°
2026-05-08 15:48 48.25410 6.68778 37050 ft 449 kts 185°
2026-05-08 15:49 48.19161 6.68541 37037 ft 449 kts 185°
2026-05-08 15:49 48.12921 6.68301 37041 ft 449 kts 185°
2026-05-08 15:50 48.06629 6.68062 37039 ft 449 kts 185°
2026-05-08 15:50 48.00384 6.67831 37028 ft 449 kts 185°
2026-05-08 15:51 47.94141 6.67589 37025 ft 449 kts 185°
2026-05-08 15:51 47.87897 6.67338 37029 ft 449 kts 185°
2026-05-08 15:52 47.81645 6.67109 37009 ft 449 kts 185°
2026-05-08 15:52 47.75399 6.66889 37003 ft 449 kts 186°
2026-05-08 15:53 47.69146 6.66652 37002 ft 450 kts 186°
2026-05-08 15:53 47.62846 6.66414 37001 ft 450 kts 186°
2026-05-08 15:54 47.56580 6.66152 36987 ft 448 kts 189°
2026-05-08 15:54 47.50551 6.64300 36988 ft 443 kts 198°
2026-05-08 15:55 47.44506 6.62182 36989 ft 443 kts 198°
2026-05-08 15:55 47.35495 6.59044 36988 ft 444 kts 198°
2026-05-08 15:56 47.29475 6.56954 36997 ft 445 kts 198°
2026-05-08 15:56 47.23447 6.54869 37012 ft 445 kts 198°
2026-05-08 15:57 47.17413 6.52784 37007 ft 446 kts 198°
2026-05-08 15:57 47.11319 6.50666 37027 ft 454 kts 198°
2026-05-08 15:58 47.05155 6.48540 37027 ft 456 kts 198°
2026-05-08 15:58 46.98942 6.46414 37010 ft 456 kts 198°
2026-05-08 15:59 46.93808 6.44662 37021 ft 456 kts 198°
2026-05-08 15:59 46.87633 6.42564 37016 ft 455 kts 198°
2026-05-08 16:00 46.81458 6.40463 37015 ft 456 kts 198°
2026-05-08 16:00 46.75284 6.38365 36991 ft 455 kts 198°
2026-05-08 16:01 46.69110 6.36267 37005 ft 455 kts 198°
2026-05-08 16:01 46.62938 6.34174 37006 ft 456 kts 198°
2026-05-08 16:02 46.56770 6.32084 37011 ft 455 kts 198°
2026-05-08 16:02 46.50596 6.30008 37012 ft 456 kts 198°
2026-05-08 16:03 46.44368 6.27918 37018 ft 456 kts 198°
2026-05-08 16:03 46.38192 6.25852 36990 ft 456 kts 198°
2026-05-08 16:04 46.31924 6.23762 36994 ft 456 kts 198°
2026-05-08 16:04 46.25709 6.21678 37001 ft 456 kts 198°
2026-05-08 16:05 46.19531 6.19616 36989 ft 456 kts 198°
2026-05-08 16:05 46.13377 6.17585 37033 ft 452 kts 198°
2026-05-08 16:06 46.07262 6.15567 37011 ft 450 kts 198°
2026-05-08 16:06 46.01168 6.13554 37000 ft 448 kts 198°
2026-05-08 16:07 45.95107 6.11552 36986 ft 446 kts 198°
2026-05-08 16:07 45.89023 6.09541 36990 ft 446 kts 198°
2026-05-08 16:08 45.82982 6.07548 36993 ft 445 kts 198°
2026-05-08 16:08 45.76947 6.05566 36986 ft 445 kts 198°
2026-05-08 16:09 45.71900 6.03917 36986 ft 444 kts 198°
2026-05-08 16:09 45.64897 6.01644 36978 ft 444 kts 198°
2026-05-08 16:10 45.58833 5.99674 36974 ft 444 kts 198°
2026-05-08 16:10 45.52813 5.97720 36987 ft 443 kts 198°
2026-05-08 16:11 45.46865 5.95539 36990 ft 437 kts 206°
2026-05-08 16:11 45.41267 5.92226 36988 ft 435 kts 208°
2026-05-08 16:12 45.35682 5.88924 37002 ft 435 kts 207°
2026-05-08 16:12 45.30100 5.85644 37002 ft 433 kts 207°
2026-05-08 16:13 45.24484 5.82347 37016 ft 434 kts 207°
2026-05-08 16:13 45.18905 5.79063 37027 ft 434 kts 207°
2026-05-08 16:14 45.13330 5.75791 37033 ft 433 kts 207°
2026-05-08 16:14 45.07769 5.72548 37049 ft 431 kts 207°
2026-05-08 16:15 45.02227 5.69317 37050 ft 430 kts 207°
2026-05-08 16:15 44.96706 5.66102 37054 ft 429 kts 207°
2026-05-08 16:16 44.91199 5.62903 37048 ft 427 kts 207°
2026-05-08 16:16 44.85704 5.59721 37048 ft 427 kts 207°
2026-05-08 16:17 44.81096 5.57051 37039 ft 426 kts 207°
2026-05-08 16:17 44.74720 5.53360 37037 ft 426 kts 207°
2026-05-08 16:18 44.69247 5.50203 37044 ft 426 kts 207°
2026-05-08 16:18 44.63760 5.47046 37035 ft 426 kts 207°
2026-05-08 16:19 44.58242 5.43879 37034 ft 426 kts 206°
2026-05-08 16:19 44.52760 5.40741 37032 ft 426 kts 207°
2026-05-08 16:20 44.47266 5.37603 37021 ft 426 kts 207°
2026-05-08 16:20 44.41777 5.34484 37029 ft 426 kts 206°
2026-05-08 16:21 44.36297 5.31361 37024 ft 425 kts 206°
2026-05-08 16:21 44.30778 5.28219 37024 ft 425 kts 206°
2026-05-08 16:22 44.26219 5.25633 37025 ft 425 kts 206°
2026-05-08 16:22 44.19818 5.22009 37028 ft 425 kts 206°
2026-05-08 16:23 44.14344 5.18919 37027 ft 425 kts 206°
2026-05-08 16:23 44.08866 5.15835 37008 ft 424 kts 206°
2026-05-08 16:24 44.03400 5.12757 37026 ft 424 kts 206°
2026-05-08 16:24 43.97933 5.09685 37034 ft 424 kts 206°
2026-05-08 16:25 43.93389 5.07142 37038 ft 424 kts 206°
2026-05-08 16:25 43.87889 5.04073 37037 ft 423 kts 205°
2026-05-08 16:26 43.82427 5.01024 37037 ft 423 kts 205°
2026-05-08 16:26 43.76966 4.97983 37039 ft 423 kts 205°
2026-05-08 16:27 43.71506 4.94950 37036 ft 423 kts 205°
2026-05-08 16:27 43.66052 4.91913 37038 ft 422 kts 205°
2026-05-08 16:28 43.60604 4.88887 37039 ft 422 kts 205°
2026-05-08 16:28 43.55150 4.85875 37040 ft 422 kts 205°
2026-05-08 16:29 43.49695 4.82863 37036 ft 422 kts 205°
2026-05-08 16:29 43.44240 4.79870 37038 ft 422 kts 205°
2026-05-08 16:30 43.38789 4.76886 37039 ft 422 kts 205°
2026-05-08 16:30 43.33343 4.73904 37038 ft 421 kts 205°
2026-05-08 16:31 43.27900 4.70923 37031 ft 421 kts 204°
2026-05-08 16:31 43.22470 4.67953 37032 ft 420 kts 204°
2026-05-08 16:32 43.17038 4.64986 37036 ft 420 kts 204°
2026-05-08 16:32 43.11566 4.62003 37029 ft 420 kts 204°
2026-05-08 16:33 43.06133 4.59052 37032 ft 420 kts 204°
2026-05-08 16:33 43.00700 4.56108 37043 ft 420 kts 204°
2026-05-08 16:34 42.95270 4.53169 37040 ft 420 kts 204°
2026-05-08 16:34 42.89833 4.50236 37030 ft 420 kts 203°
2026-05-08 16:35 42.84401 4.47311 37028 ft 420 kts 203°
2026-05-08 16:35 42.78972 4.44386 37027 ft 420 kts 203°
2026-05-08 16:36 42.73542 4.41467 37026 ft 419 kts 203°
2026-05-08 16:36 42.68116 4.38559 37025 ft 419 kts 203°
2026-05-08 16:37 42.62692 4.35652 37023 ft 419 kts 203°
2026-05-08 16:37 42.57263 4.32754 37020 ft 419 kts 203°
2026-05-08 16:38 42.51829 4.29870 37009 ft 419 kts 203°
2026-05-08 16:38 42.46365 4.26965 37009 ft 419 kts 203°
2026-05-08 16:39 42.40943 4.24081 37014 ft 419 kts 203°
2026-05-08 16:39 42.35526 4.21201 37015 ft 419 kts 203°
2026-05-08 16:40 42.30104 4.18332 37023 ft 418 kts 203°
2026-05-08 16:40 42.24677 4.15474 37028 ft 418 kts 203°
2026-05-08 16:41 42.19265 4.12624 37031 ft 418 kts 203°
2026-05-08 16:42 42.11523 4.07349 37016 ft 416 kts 210°
2026-05-08 16:42 42.06442 4.03626 37022 ft 416 kts 210°
2026-05-08 16:43 42.01358 3.99915 37025 ft 416 kts 210°
2026-05-08 16:43 41.96279 3.96204 37024 ft 415 kts 210°
2026-05-08 16:44 41.90990 3.93104 37004 ft 418 kts 197°
2026-05-08 16:44 41.85239 3.91708 37006 ft 420 kts 193°
2026-05-08 16:45 41.79476 3.90385 37010 ft 421 kts 193°
2026-05-08 16:45 41.73699 3.89041 37018 ft 421 kts 193°
2026-05-08 16:46 41.67928 3.87710 37008 ft 421 kts 193°
2026-05-08 16:46 41.62119 3.86379 37010 ft 421 kts 193°
2026-05-08 16:47 41.56344 3.85055 37012 ft 422 kts 193°
2026-05-08 16:47 41.50559 3.83730 37018 ft 422 kts 193°
2026-05-08 16:48 41.44769 3.82406 37002 ft 422 kts 194°
2026-05-08 16:48 41.38973 3.81070 37019 ft 423 kts 194°
2026-05-08 16:49 41.33175 3.79753 37035 ft 423 kts 194°
2026-05-08 16:49 41.27373 3.78437 37030 ft 423 kts 194°
2026-05-08 16:50 41.21571 3.77116 37035 ft 423 kts 194°
2026-05-08 16:50 41.15790 3.75737 37034 ft 419 kts 199°
2026-05-08 16:51 41.10344 3.73143 36821 ft 415 kts 205°
2026-05-08 16:51 41.07624 3.71742 36548 ft 414 kts 205°
2026-05-08 16:51 41.04982 3.70383 35936 ft 412 kts 206°
2026-05-08 16:51 41.02283 3.68993 35298 ft 410 kts 206°
2026-05-08 16:52 40.99624 3.67622 34647 ft 410 kts 205°
2026-05-08 16:52 40.96970 3.66254 33991 ft 410 kts 205°
2026-05-08 16:52 40.94315 3.64884 33175 ft 410 kts 205°
2026-05-08 16:52 40.91648 3.63509 32304 ft 413 kts 205°
2026-05-08 16:53 40.86249 3.60740 30449 ft 420 kts 204°
2026-05-08 16:53 40.83502 3.59335 29415 ft 425 kts 205°
2026-05-08 16:53 40.80762 3.57938 28714 ft 421 kts 205°
2026-05-08 16:54 40.78024 3.56544 28387 ft 420 kts 205°
2026-05-08 16:54 40.75309 3.55159 28115 ft 419 kts 205°
2026-05-08 16:54 40.72597 3.53776 27864 ft 417 kts 205°
2026-05-08 16:54 40.69898 3.52400 27599 ft 416 kts 205°
2026-05-08 16:55 40.67203 3.51027 27329 ft 414 kts 205°
2026-05-08 16:55 40.64522 3.49662 27071 ft 412 kts 205°
2026-05-08 16:55 40.61855 3.48304 26818 ft 411 kts 205°
2026-05-08 16:55 40.59190 3.46950 26559 ft 409 kts 205°
2026-05-08 16:56 40.56546 3.45609 26308 ft 407 kts 205°
2026-05-08 16:56 40.53902 3.44268 26059 ft 406 kts 205°
2026-05-08 16:56 40.51275 3.42936 25834 ft 404 kts 205°
2026-05-08 16:56 40.49506 3.42044 25668 ft 403 kts 205°
2026-05-08 16:57 40.46029 3.40344 25344 ft 403 kts 201°
2026-05-08 16:57 40.44186 3.39749 25181 ft 406 kts 195°
2026-05-08 16:57 40.41355 3.39404 24920 ft 412 kts 186°
2026-05-08 16:57 40.38479 3.39555 24687 ft 414 kts 183°
2026-05-08 16:58 40.35598 3.39730 24458 ft 413 kts 184°
2026-05-08 16:58 40.32729 3.39894 24219 ft 412 kts 184°
2026-05-08 16:58 40.29871 3.40053 23988 ft 411 kts 184°
2026-05-08 16:58 40.27019 3.40211 23759 ft 409 kts 184°
2026-05-08 16:59 40.24177 3.40368 23518 ft 408 kts 184°
2026-05-08 16:59 40.21342 3.40525 23246 ft 407 kts 184°
2026-05-08 16:59 40.18521 3.40683 22955 ft 406 kts 184°
2026-05-08 16:59 40.15702 3.40843 22685 ft 405 kts 184°
2026-05-08 17:00 40.12904 3.41004 22207 ft 400 kts 184°
2026-05-08 17:00 40.10134 3.41161 21588 ft 397 kts 184°
2026-05-08 17:00 40.07351 3.41321 21004 ft 394 kts 184°
2026-05-08 17:00 40.04626 3.41476 20438 ft 391 kts 184°
2026-05-08 17:01 40.01925 3.41630 19770 ft 384 kts 184°
2026-05-08 17:01 39.99269 3.41784 18856 ft 382 kts 183°
2026-05-08 17:01 39.96613 3.41933 18297 ft 381 kts 183°
2026-05-08 17:01 39.93966 3.42083 17742 ft 378 kts 183°
2026-05-08 17:02 39.91351 3.42231 17199 ft 375 kts 183°
2026-05-08 17:02 39.88752 3.42374 16674 ft 372 kts 183°
2026-05-08 17:02 39.86139 3.42516 16150 ft 369 kts 183°
2026-05-08 17:02 39.83585 3.42657 15662 ft 366 kts 183°
2026-05-08 17:03 39.81046 3.42797 15177 ft 364 kts 182°
2026-05-08 17:03 39.78490 3.42940 14697 ft 361 kts 182°
2026-05-08 17:03 39.75994 3.43063 14238 ft 357 kts 185°
2026-05-08 17:03 39.73580 3.42712 13568 ft 342 kts 198°
2026-05-08 17:04 39.71373 3.41646 12984 ft 336 kts 211°
2026-05-08 17:04 39.69440 3.40005 12446 ft 329 kts 222°
2026-05-08 17:04 39.67856 3.37889 11907 ft 325 kts 234°
2026-05-08 17:04 39.66706 3.35452 11763 ft 308 kts 244°
2026-05-08 17:05 39.65791 3.33062 11629 ft 284 kts 244°
2026-05-08 17:05 39.64930 3.30834 11505 ft 262 kts 244°
2026-05-08 17:05 39.64139 3.28797 11381 ft 244 kts 244°
2026-05-08 17:05 39.63399 3.26895 11184 ft 230 kts 244°
2026-05-08 17:06 39.62678 3.25040 10763 ft 226 kts 243°
2026-05-08 17:06 39.61970 3.23212 10274 ft 226 kts 244°
2026-05-08 17:06 39.61267 3.21390 9810 ft 225 kts 243°
2026-05-08 17:06 39.60565 3.19576 9263 ft 226 kts 243°
2026-05-08 17:07 39.59859 3.17749 8752 ft 228 kts 243°
2026-05-08 17:07 39.59155 3.15939 8609 ft 226 kts 243°
2026-05-08 17:07 39.58439 3.14097 8475 ft 228 kts 243°
2026-05-08 17:07 39.57722 3.12249 8349 ft 228 kts 243°
2026-05-08 17:08 39.57009 3.10416 8226 ft 228 kts 243°
2026-05-08 17:08 39.56295 3.08581 8011 ft 227 kts 243°
2026-05-08 17:08 39.55581 3.06748 7664 ft 228 kts 242°
2026-05-08 17:08 39.54870 3.04919 7352 ft 227 kts 243°
2026-05-08 17:09 39.54159 3.03094 7012 ft 227 kts 242°
2026-05-08 17:09 39.53450 3.01274 6715 ft 225 kts 242°
2026-05-08 17:09 39.52748 2.99468 6414 ft 225 kts 242°
2026-05-08 17:09 39.52045 2.97661 6063 ft 225 kts 242°
2026-05-08 17:10 39.51340 2.95850 5723 ft 225 kts 242°
2026-05-08 17:10 39.50619 2.94034 5325 ft 228 kts 241°
2026-05-08 17:10 39.49888 2.92211 4978 ft 229 kts 240°
2026-05-08 17:10 39.49161 2.90370 4627 ft 230 kts 241°
2026-05-08 17:11 39.48431 2.88522 4293 ft 230 kts 242°
2026-05-08 17:11 39.47708 2.86679 4043 ft 228 kts 241°
2026-05-08 17:11 39.46987 2.84829 4022 ft 232 kts 241°
2026-05-08 17:11 39.46253 2.82972 4021 ft 232 kts 241°
2026-05-08 17:12 39.45521 2.81107 4009 ft 232 kts 242°
2026-05-08 17:12 39.44784 2.79257 4011 ft 231 kts 242°
2026-05-08 17:12 39.44048 2.77415 4003 ft 231 kts 240°
2026-05-08 17:12 39.43315 2.75565 4011 ft 231 kts 241°
2026-05-08 17:13 39.42570 2.73721 3988 ft 231 kts 240°
2026-05-08 17:13 39.41820 2.71876 4009 ft 232 kts 240°
2026-05-08 17:13 39.41067 2.70033 4011 ft 231 kts 240°
2026-05-08 17:13 39.40300 2.68180 4003 ft 231 kts 240°
2026-05-08 17:14 39.39537 2.66345 4010 ft 232 kts 240°
2026-05-08 17:14 39.38914 2.64426 3943 ft 234 kts 261°
2026-05-08 17:14 39.39041 2.62358 3619 ft 234 kts 287°
2026-05-08 17:14 39.39564 2.60365 3255 ft 233 kts 291°
2026-05-08 17:15 39.40142 2.58411 2862 ft 233 kts 292°
2026-05-08 17:15 39.40727 2.56459 2615 ft 233 kts 291°
2026-05-08 17:15 39.41496 2.54643 2473 ft 231 kts 316°
2026-05-08 17:15 39.42835 2.53574 2349 ft 227 kts 345°
2026-05-08 17:16 39.44368 2.53323 2231 ft 221 kts
2026-05-08 17:16 39.45834 2.53842 2129 ft 217 kts 31°
2026-05-08 17:16 39.47013 2.55011 2110 ft 214 kts 52°
2026-05-08 17:16 39.47836 2.56585 2108 ft 207 kts 60°
2026-05-08 17:17 39.48566 2.58119 2102 ft 194 kts 61°
2026-05-08 17:17 39.49252 2.59559 2023 ft 182 kts 62°
2026-05-08 17:17 39.49888 2.60895 1806 ft 168 kts 62°
2026-05-08 17:17 39.50492 2.62168 1600 ft 161 kts 61°
2026-05-08 17:18 39.51071 2.63386 1395 ft 152 kts 62°
2026-05-08 17:18 39.51603 2.64506 1191 ft 142 kts 60°
2026-05-08 17:18 39.52115 2.65585 1004 ft 140 kts 60°
2026-05-08 17:18 39.52630 2.66672 816 ft 142 kts 62°
2026-05-08 17:19 39.53158 2.67786 642 ft 142 kts 60°
2026-05-08 17:19 39.53668 2.68862 456 ft 141 kts 60°
2026-05-08 17:19 39.54183 2.69942 279 ft 140 kts 62°
2026-05-08 17:19 39.54697 2.71019 96 ft 139 kts 60°
2026-05-08 17:20 39.55020 2.71716 40 ft 125 kts 59°
2026-05-08 17:20 39.55387 2.72492 38 ft 71 kts 58°
2026-05-08 17:20 39.55498 2.72893 38 ft 24 kts 88°
2026-05-08 17:20 39.55500 2.73013 38 ft 14 kts 90°
2026-05-08 17:21 39.55500 2.73076 38 ft 3 kts 89°
2026-05-08 17:21 39.55500 2.73102 38 ft 4 kts 90°
2026-05-08 17:21 39.55502 2.73154 38 ft 8 kts 85°
2026-05-08 17:21 39.55526 2.73233 38 ft 11 kts 57°
2026-05-08 17:22 39.55574 2.73331 38 ft 14 kts 58°
2026-05-08 17:22 39.55628 2.73447 38 ft 12 kts 65°
2026-05-08 17:22 39.55586 2.73530 38 ft 13 kts 154°
2026-05-08 17:22 39.55513 2.73575 38 ft 8 kts 185°
2026-05-08 17:23 39.55479 2.73523 38 ft 7 kts 238°
2026-05-08 17:23 39.55455 2.73473 38 ft 6 kts 239°
2026-05-08 17:23 39.55422 2.73447 38 ft 8 kts 181°
2026-05-08 17:23 39.55355 2.73496 38 ft 14 kts 148°
2026-05-08 17:24 39.55265 2.73567 38 ft 16 kts 149°
2026-05-08 17:24 39.55174 2.73636 38 ft 10 kts 154°
2026-05-08 17:24 39.55129 2.73591 38 ft 9 kts 238°
2026-05-08 17:24 39.55101 2.73529 38 ft 8 kts 239°
2026-05-08 17:25 39.55076 2.73477 38 ft 5 kts 228°
2026-05-08 17:25 39.55050 2.73479 38 ft 3 kts 166°
2026-05-08 17:25 39.55030 2.73485 36 ft 2 kts 165°
2026-05-08 17:25 39.55022 2.73488 38 ft 0 kts 165°
2026-05-08 17:26 39.55021 2.73488 38 ft 0 kts 165°